Total_Precipitation_Accumulation
2.63 2.65 2.53 2.46 2.37 2.30 2.16 1.94 1.90 1.87 1.76 1.66 1.58 1.54 1.51 1.53 1.54 1.57 1.52 1.49 1.49 1.45 1.36 1.35 1.37 1.45 1.59 1.60 1.62 1.76 1.97 2.17 2.25 1.86 1.69 1.80 1.93 1.87 1.91 1.82 1.68 1.67 1.65
2.24 2.35 2.37 2.26 2.05 1.95 1.86 1.77 1.68 1.62 1.58 1.53 1.42 1.37 1.33 1.28 1.26 1.25 1.26 1.28 1.28 1.26 1.26 1.31 1.31 1.37 1.49 1.52 1.58 1.64 1.80 2.06 2.23 2.15 1.91 1.92 1.97 1.94 2.01 1.98 1.77 1.63 1.66
1.99 2.03 2.00 1.93 1.82 1.72 1.69 1.69 1.57 1.50 1.42 1.35 1.30 1.29 1.24 1.25 1.17 1.10 1.10 1.16 1.16 1.13 1.18 1.25 1.32 1.55 1.57 1.55 1.59 1.62 1.72 1.85 2.17 2.21 2.02 2.02 2.06 2.08 2.25 2.09 1.91 1.89 1.60
1.65 1.77 1.78 1.74 1.69 1.61 1.50 1.48 1.45 1.42 1.36 1.31 1.28 1.20 1.16 1.16 1.16 1.11 1.08 1.12 1.14 1.12 1.17 1.25 1.33 1.50 1.59 1.65 1.63 1.69 1.75 1.91 2.09 2.21 2.15 2.13 2.19 2.24 2.28 2.22 2.08 1.94 1.75
1.55 1.51 1.59 1.69 1.68 1.61 1.54 1.49 1.44 1.36 1.26 1.26 1.24 1.18 1.17 1.14 1.07 1.08 1.07 1.09 1.17 1.18 1.13 1.14 1.20 1.30 1.42 1.43 1.33 1.45 1.64 1.90 1.97 2.16 2.19 2.21 2.19 2.28 2.17 1.96 1.91 1.88 1.73
1.55 1.52 1.55 1.61 1.60 1.54 1.50 1.45 1.40 1.35 1.33 1.30 1.25 1.19 1.13 0.91 1.00 1.04 1.03 1.10 1.16 1.16 1.14 1.13 1.08 1.05 1.03 1.03 1.08 1.16 1.34 1.63 1.99 2.24 2.18 2.16 2.06 2.00 2.01 1.95 1.98 2.01 1.95
1.69 1.58 1.56 1.53 1.48 1.44 1.32 1.30 1.37 1.38 1.35 1.27 1.22 1.20 1.14 1.01 1.00 0.95 0.98 1.10 1.20 1.26 1.30 1.27 1.00 0.86 0.97 0.99 1.04 1.10 1.22 1.40 1.72 2.12 2.22 2.02 1.98 1.93 2.01 2.02 2.09 2.13 2.00
1.72 1.57 1.47 1.47 1.44 1.44 1.40 1.36 1.40 1.42 1.35 1.33 1.29 1.26 1.24 1.10 1.02 0.94 0.98 1.04 1.18 1.20 1.20 1.22 1.21 1.11 1.03 1.11 1.17 1.24 1.34 1.45 1.55 1.66 2.01 1.86 1.67 1.73 1.87 1.94 2.07 2.12 2.00
1.74 1.52 1.39 1.39 1.36 1.36 1.37 1.37 1.39 1.39 1.33 1.28 1.26 1.28 1.34 1.27 1.11 0.99 0.92 0.94 1.07 1.10 1.06 1.04 1.01 1.05 1.15 1.31 1.41 1.62 1.72 1.81 1.67 1.81 1.96 1.90 1.76 1.74 1.69 1.84 2.16 2.24 2.09
1.52 1.38 1.32 1.32 1.27 1.24 1.29 1.34 1.36 1.37 1.32 1.27 1.25 1.29 1.28 1.18 1.01 0.86 0.82 0.83 0.98 1.04 1.10 1.07 0.96 0.91 1.06 1.24 1.46 1.79 1.94 2.01 1.85 1.93 2.17 2.18 1.99 2.01 2.02 1.97 2.22 2.35 2.25
1.25 1.22 1.25 1.23 1.17 1.12 1.17 1.22 1.29 1.27 1.28 1.28 1.20 1.18 1.11 0.97 0.90 0.78 0.75 0.75 0.86 1.00 1.06 1.10 1.05 0.97 1.02 1.26 1.48 1.70 1.86 1.90 1.96 2.06 2.07 2.06 2.13 2.15 2.15 2.13 2.18 2.23 2.22
1.15 1.12 1.19 1.23 1.04 0.93 1.04 1.05 1.09 1.25 1.22 1.20 1.22 1.12 0.98 0.91 0.79 0.72 0.70 0.68 0.72 0.92 1.11 1.10 1.12 1.10 1.12 1.32 1.47 1.71 1.92 1.99 1.98 2.07 1.95 1.83 1.80 1.82 1.90 1.92 1.96 1.95 1.91
1.15 1.19 1.19 1.17 1.10 1.05 1.07 1.04 1.07 1.17 1.18 1.10 1.10 1.04 0.90 0.88 0.80 0.73 0.72 0.74 0.77 0.87 1.05 1.12 1.13 1.12 1.21 1.47 1.65 1.84 2.02 2.11 2.17 2.06 1.85 1.72 1.61 1.58 1.59 1.71 1.82 1.85 1.75
1.18 1.21 1.25 1.21 1.10 1.06 1.12 1.03 1.02 1.02 1.06 1.03 0.99 0.99 0.94 0.89 0.79 0.72 0.75 0.80 0.83 0.86 0.96 1.12 1.21 1.24 1.37 1.65 1.85 2.04 2.13 2.08 1.95 1.90 1.80 1.71 1.58 1.53 1.57 1.55 1.62 1.70 1.73
1.24 1.19 1.18 1.09 1.07 1.10 1.04 0.91 0.85 0.81 0.85 0.92 0.92 0.90 0.88 0.83 0.77 0.78 0.75 0.72 0.75 0.78 0.90 1.09 1.25 1.36 1.52 1.72 1.91 1.98 1.98 1.90 1.82 1.65 1.59 1.67 1.66 1.58 1.58 1.54 1.55 1.58 1.66
1.19 1.16 1.08 1.01 0.99 0.96 0.99 0.92 0.83 0.77 0.76 0.74 0.78 0.74 0.71 0.77 0.78 0.76 0.72 0.73 0.75 0.80 0.88 1.10 1.27 1.37 1.52 1.70 1.85 1.86 1.80 1.72 1.63 1.53 1.46 1.41 1.43 1.42 1.47 1.49 1.44 1.45 1.50
1.04 1.01 0.99 0.96 0.94 0.89 0.90 0.95 0.94 0.77 0.69 0.67 0.70 0.68 0.68 0.68 0.64 0.63 0.65 0.71 0.73 0.79 0.85 1.07 1.22 1.35 1.54 1.65 1.66 1.64 1.65 1.58 1.50 1.45 1.40 1.32 1.25 1.22 1.23 1.23 1.22 1.26 1.24
0.88 0.85 0.83 0.87 0.88 0.85 0.81 0.79 0.81 0.80 0.78 0.70 0.65 0.66 0.62 0.60 0.56 0.54 0.58 0.62 0.66 0.70 0.82 1.04 1.20 1.31 1.42 1.51 1.56 1.58 1.55 1.49 1.41 1.37 1.42 1.39 1.29 1.22 1.13 1.12 1.13 1.11 1.10
0.79 0.79 0.73 0.73 0.78 0.78 0.76 0.76 0.73 0.74 0.74 0.71 0.64 0.61 0.60 0.58 0.57 0.58 0.58 0.57 0.65 0.74 0.85 1.01 1.13 1.26 1.28 1.27 1.32 1.37 1.41 1.41 1.35 1.31 1.29 1.29 1.23 1.17 1.07 0.99 0.97 0.89 0.92
0.71 0.74 0.70 0.64 0.65 0.71 0.71 0.70 0.68 0.68 0.68 0.67 0.63 0.57 0.59 0.66 0.63 0.63 0.60 0.56 0.63 0.74 0.84 0.95 1.04 1.10 1.10 1.09 1.09 1.11 1.16 1.21 1.20 1.15 1.13 1.15 1.13 1.07 1.02 0.97 0.95 0.93 0.92
0.61 0.66 0.70 0.64 0.59 0.59 0.59 0.59 0.57 0.60 0.65 0.67 0.62 0.60 0.71 0.73 0.75 0.73 0.71 0.68 0.70 0.75 0.80 0.82 0.87 0.91 0.92 0.94 0.96 0.99 1.03 1.06 1.08 1.08 1.03 1.02 1.00 1.00 0.95 0.93 0.94 0.91 0.88
0.55 0.58 0.61 0.61 0.59 0.56 0.54 0.55 0.57 0.55 0.54 0.60 0.63 0.68 0.80 0.74 0.77 0.81 0.80 0.77 0.76 0.76 0.75 0.76 0.76 0.77 0.80 0.83 0.85 0.87 0.89 0.91 0.95 1.00 1.00 0.94 0.86 0.83 0.80 0.79 0.84 0.89 0.89
0.64 0.63 0.62 0.64 0.63 0.59 0.56 0.58 0.61 0.59 0.56 0.56 0.57 0.63 0.73 0.81 0.89 0.94 0.93 0.87 0.83 0.79 0.75 0.75 0.77 0.78 0.79 0.78 0.76 0.81 0.84 0.84 0.89 0.96 1.00 0.93 0.83 0.78 0.73 0.71 0.74 0.79 0.80
0.69 0.67 0.65 0.68 0.72 0.67 0.63 0.62 0.60 0.60 0.61 0.63 0.63 0.66 0.73 0.84 0.87 0.94 1.01 0.98 0.90 0.84 0.79 0.76 0.76 0.75 0.74 0.72 0.67 0.64 0.65 0.71 0.78 0.85 0.88 0.88 0.77 0.68 0.65 0.65 0.66 0.66 0.72
0.70 0.71 0.70 0.67 0.68 0.70 0.65 0.69 0.68 0.64 0.63 0.64 0.67 0.68 0.72 0.75 0.75 0.85 0.94 0.98 0.98 0.95 0.87 0.82 0.82 0.79 0.72 0.65 0.59 0.54 0.62 0.70 0.75 0.77 0.79 0.77 0.68 0.64 0.64 0.66 0.65 0.62 0.65
0.64 0.67 0.68 0.65 0.63 0.66 0.68 0.70 0.68 0.66 0.66 0.64 0.63 0.63 0.66 0.67 0.70 0.75 0.82 0.89 0.94 1.00 1.03 1.05 1.00 0.87 0.76 0.65 0.65 0.69 0.67 0.63 0.64 0.68 0.69 0.69 0.63 0.63 0.65 0.66 0.61 0.61 0.63